STARLINK-1270, 45237

Orbit data source: Space-Track

STARLINK-1270, 45237 is a payload satellite owned by SpaceX/Seattle (US) in LEO that was launched on Mon, 17 Feb 2020 UTC via an FALCON 9 launch vehicle from the Air Force Eastern Test Range (AFETR). Payload-class satellites include a variety of spacecraft equipped with specific instruments for various scientific and technological missions. These include communications satellites like Starlink; space stations such as the ISS; scientific satellites like the Hubble; Earth observation satellites from companies like Planet Labs, Umbra, and HawkEye 360; GPS; miniature CubeSats for education and research; and military/defense satellites.

Loading next visibility...
Identifier
45237, 2020-012BM
Orbit
LEO
Country
Flag of USUS
Related business
Manufacturer
SpaceX/Seattle
Mission
Partially operational Commercial Communications
Bus & Motor
STARLINK, Unknown motor
Mass
260 kg wet, ~248 kg dry
Launch date (UTC)
2020-02-17 (7 years ago)
Launch vehicle
FALCON 9
Launch site
Air Force Eastern Test Range (AFETR)
Object type
Payload
Rocket body
Debris
Shape & HBR
Box + 1 Pan, 10.1 m
Radar Cross Section
13.562 m², Large (>1 m²)

Expand to show TLE details & history
Last TLE update: 1 day ago

TLE from 1 day ago
0 STARLINK-1270
1 45237U 20012BM  26252.99694474  .00098280  00000-0  50491-3 0  9994
2 45237  53.0365 164.1050 0005447 100.4120 259.7515 15.80456962364519
Epoch: 2026-09-09T23:55Z
TLE epoch observation values (Epoch: 2026-09-09T23:55:36.025Z)
Latitude
-0.00003°
Longitude
176.16389°
Altitude
330.705 km
Speed
7.711 km/s
True Right ascension
10h 56m 25s
True Declination
0° 00' 00"
Sunlit
Object was in daylight at epoch
Visualization orbit readout
Latitude
Unknown
Longitude
Unknown
Altitude
Unknown
Speed
Unknown
Apparent Right ascension
Unknown
Apparent Declination
Unknown
Sunlit
N/A
Visualization observer readout
Local Sidereal Time
22:30:31
Azimuth
Unknown
Elevation
Unknown
Doppler factor
Unknown
Orbital elements
Apogee altitude
333.083 km
Perigee altitude
325.776 km
Semi-major axis
6,707.567 km
Eccentricity
0.00054
Inclination
53.0365°
RAAN
164.105°
Arg. of periapsis
100.412°
True anomaly
259.69009°
Mean anomaly
259.7515°
Eccentric anomaly
259.72079°
Mean motion
3.9509 °/min
Orbital period
91.12 mins
BSTAR
0.00050491
Loading maneuver chart data...
Computing Atmospheric mass density...

Documentation

Showing up to 5 results
|